This demonstration page uses our WeatherBlox Daily Observations layout. Learn more.

Left ArrowRight Arrow

38.80484, -77.04692

Hourly Observations for May 21, 2022

Temp ( °F °C ) Dew Point ( °F °C ) Humidity (%) Winds ( mph kmh ) Pressure ( in mb ) Visibility ( mi km ) Precip ( " mm )
12:52 am 00:52 Mostly Cloudy 83 28.3 66 18.9 57 57 SSW 13 20 29.90 1012 10 16 0.00 0.00
1:52 am 01:52 Partly Cloudy 82 27.8 65 18.3 56 56 SSW 12 19 29.90 1013 10 16 0.00 0.00
2:52 am 02:52 Mostly Cloudy 78 25.6 66 18.9 67 67 S 10 17 29.91 1013 10 16 0.00 0.00
3:52 am 03:52 Partly Cloudy 78 25.6 65 18.3 64 64 S 9 15 29.91 1013 10 16 0.00 0.00
4:52 am 04:52 Partly Cloudy 76 24.4 64 17.8 67 67 S 6 9 29.93 1014 10 16 0.00 0.00
5:52 am 05:52 Partly Cloudy 77 25 63 17.2 62 62 Calm 29.98 1015 10 16 0.00 0.00
6:52 am 06:52 Mostly Cloudy 75 23.9 66 18.9 74 74 SSW 5 7 30.01 1016 10 16 0.00 0.00
7:52 am 07:52 Mostly Cloudy 79 26.1 66 18.9 65 65 Calm 30.04 1017 10 16 0.00 0.00
8:52 am 08:52 Mostly Cloudy 79 26.1 66 18.9 65 65 S 8 13 30.05 1018 10 16 0.00 0.00
9:52 am 09:52 Mostly Cloudy 81 27.2 65 18.3 58 58 S 10 17 30.06 1018 10 16 0.00 0.00
10:52 am 10:52 Mostly Cloudy 82 27.8 66 18.9 58 58 S 10 17 30.06 1018 10 16 0.00 0.00
11:52 am 11:52 Mostly Cloudy 85 29.4 67 19.4 55 55 S 10 17 30.06 1018 10 16 0.00 0.00
12:52 pm 12:52 Mostly Cloudy 88 31.1 66 18.9 48 48 S 8 13 30.06 1018 10 16 0.00 0.00
1:52 pm 13:52 Mostly Cloudy 91 32.8 66 18.9 44 44 S 8 13 30.05 1018 10 16 0.00 0.00
2:52 pm 14:52 Mostly Cloudy 91 32.8 68 20 47 47 S 7 11 30.05 1018 10 16 0.00 0.00
3:52 pm 15:52 Partly Cloudy 92 33.3 66 18.9 43 43 S 10 17 30.03 1017 10 16 0.00 0.00
4:52 pm 16:52 Partly Cloudy 90 32.2 66 18.9 45 45 S 12 19 30.02 1017 10 16 0.00 0.00
5:52 pm 17:52 Mostly Cloudy 87 30.6 67 19.4 51 51 S 10 17 30.02 1017 10 16 0.00 0.00
6:52 pm 18:52 Partly Cloudy 88 31.1 67 19.4 50 50 SSE 10 17 30.01 1016 10 16 0.00 0.00
7:52 pm 19:52 Partly Cloudy 85 29.4 68 20 57 57 S 10 17 29.99 1016 10 16 0.00 0.00
8:52 pm 20:52 Mostly Clear 83 28.3 67 19.4 59 59 S 8 13 30.03 1017 10 16 0.00 0.00
9:52 pm 21:52 Mostly Clear 81 27.2 67 19.4 62 62 S 8 13 30.06 1018 10 16 0.00 0.00
10:52 pm 22:52 Mostly Clear 79 26.1 68 20 69 69 S 12 19 30.09 1019 10 16 0.00 0.00
11:52 pm 23:52 Partly Cloudy 82 27.8 66 18.9 58 58 S 15 24 30.08 1019 10 16 0.00 0.00

Powered by AerisWeather